{"data":{"norad_id":60597,"intl_designator":"2024-150Q","name":"STARLINK-32162","alt_names":[],"object_type":"PAYLOAD","status":"ACTIVE","operator":null,"country":"US","launch_date":"2024-08-20","launch_site_code":"AFETR","launch_vehicle":null,"mission":null,"orbit_class":"UNKNOWN","rcs_meters":null,"size_class":null,"mass_kg":null,"dimensions":null,"purposes":["comms"],"wikipedia_slug":null,"has_3d_model":false,"image_url":null,"decayed_at":null,"tle_current":{"epoch":"2026-05-24T21:25:30.417024Z","epoch_age_seconds":87914,"freshness":"FRESH","line1":"1 60597U 24150Q   26144.89271316  .00000416  00000+0  26178-4 0  9991","line2":"2 60597  53.1611 313.4083 0001141 109.0392 251.0733 15.30196419 99704","mean_motion":15.30196419,"eccentricity":0.0001141,"inclination_deg":53.1611,"raan_deg":313.4083,"arg_perigee_deg":109.0392,"mean_anomaly_deg":251.0733,"bstar":2.6178e-5,"rev_number":9970,"period_min":94.105565933886,"perigee_km":474.44379296959,"apogee_km":476.0077303518,"semimajor_km":6853.3627616607,"source":"CELESTRAK","updated_at":"2026-05-25T13:38:19.281392Z"}}}